Starlink 11357

operational
NORAD ID: 61541 Int'l Des: 2024-184 Owner: SPXS Country: US Constellation: starlink
LEOCIRCULAR

关于 Starlink 11357

正在加载描述...

实时位置

正在加载3D地球...

即将过境

高度历史

Altitude vs Time

uPlot chart will show altitude changes over time

两行轨道根数

1 61541U 24184K 26036.28564909 -.00002375 00000-0 -14735-4 0 9999
2 61541 53.1585 36.3168 0000974 72.5923 287.5202 15.69732630 75326
Epoch: Feb 5, 2026 • Age: 4 hours

当前状态

高度 374.7 km
速度 7.68 km/s
星下点 -42.95°S, 40.04°W
发射日期 Oct 15, 2024
运行时间 1.3 years
类型 internet

技术详情

分类 Payload
质量 960.00 kg
干质量 910.00 kg
总质量 960.00 kg
长度 0.30 m
直径 4.10 m
跨度 29.00 m
形状 Box + pan
制造商 SPXS
平台类型 Starlink V2MD
阶段状态 In Orbit
所有者/国家 SPXS/US

大型星座

Loading constellations...